Portada
METAR-TAF:

METAR-TAF

Aeroports :

Kashmar, Iran

latitud: 35-16-14N, longitud: 58-28-24E, altitud: 1110 m

Observació

L'informe es va fer fa 24 minuts, a les 16:00 UTC
Vent 16 kt del Nord
Temperatura 23°C
Humitat 27%
Pressió 978 hPa
Visibilitat 10 km o més
Núvols disperses a una alçada de 4000 ft

METAR: OIMQ 131600Z 36016KT 9999 SCT040 23/03 Q0978

Hora: 20:54 (16:24 UTC)


TAF: manca

Observacions i pronòstics meteorològics de més de 4000 aeroports (METAR i TAF).

Les estacions disponibles són els punts grocs i vermells al mapa.

Posi el ratolí al punt desitjat per veure el nom de l'estació.

Feu clic per veure les observacions i els pronòstics meteorològics.

Per canviar el mapa: feu clic els botons verds amb una creu de color negre per apropar; al botó verd amb un guió per allunyar la imatge; o en les fletxes verdes per a mapes adjacents.


METAR-TAF: